Regional Weather Roundup
Issued by NWS

Home | Current Version | Previous Version | Graphics & Text | Print | Product List | Glossary On
Versions: 1 2 3 4 5 6 7 8 9 10 11 12 13 14 15 16 17 18 19 20 21 22 23 24 25 26 27 28 29 30 31 32 33 34 35 36 37 38 39 40 41 42 43 44 45 46 47 48 49 50
000
ASUS43 KMPX 220110
RWRMN
WEATHER ROUNDUP FOR MINNESOTA
NATIONAL WEATHER SERVICE TWIN CITIES/CHANHASSEN MN
800 PM CDT TUE MAR 21 2017


NOTE: "FAIR" INDICATES FEW OR NO CLOUDS BELOW 12,000 FEET WITH NO
SIGNIFICANT WEATHER AND/OR OBSTRUCTIONS TO VISIBILITY. N/A MEANS
CURRENT SKY AND/OR WEATHER CONDITIONS ARE NOT AVAILABLE.

MNZ060>063-068>070-220200-
   Twin Cities Metro

CITY           SKY/WX    TMP DP  RH WIND       PRES   REMARKS
TWIN CITIES    PTCLDY    31   6  35 N9        30.47R WCI  23
ST PAUL        CLEAR     31   5  33 N14       30.48R WCI  21
CRYSTAL        CLEAR     29   6  38 N7        30.46R WCI  22
BLAINE         PTCLDY    34   9  35 N9G16     30.45S WCI  26
LAKEVILLE      CLEAR     28  10  47 N7        30.45R WCI  21
EDEN PRAIRIE   CLEAR     30   6  36 N8        30.45R WCI  22
SOUTH ST PAUL  CLEAR     32   5  31 N13       30.46R WCI  22
LAKE ELMO      FAIR      30   9  40 N8        30.47R WCI  23
$$
MNZ001>005-007-008-013>017-022>024-027-028-220200-
   Northwest Minnesota

CITY           SKY/WX    TMP DP  RH WIND       PRES   REMARKS
BEMIDJI        CLEAR     19  -1  41 N3        30.51S
HALLOCK        CLEAR     19   7  58 N9        30.59S WCI   9
ROSEAU         CLEAR     21   7  53 NE6       30.56S WCI  14
WARROAD        PTCLDY    19   7  58 CALM      30.56S
THIEF RVR FALL CLEAR     21   7  54 N7        30.56S WCI  12
CROOKSTON      PTCLDY    21  12  68 N12       30.58R WCI   9
FOSSTON        CLEAR     19   9  63 N9        30.54R WCI   9
DETROIT LAKES  CLEAR     23  12  63 N6        30.51R WCI  16
MOORHEAD       CLEAR     23  16  74 N10       30.56R WCI  12
PARK RAPIDS    CLEAR     24  -1  33 NE7       30.49R WCI  16
MAHNOMEN       FAIR      22  10  59 N8        30.52S WCI  12
$$
MNZ006-009>011-018-025>026-220200-
   North Central Minnesota

CITY           SKY/WX    TMP DP  RH WIND       PRES   REMARKS
BAUDETTE       CLEAR     17   0  47 N5        30.54R WCI  10
FLAG ISLAND    CLEAR     19  -2  38 N7        30.55S WCI  10
INTL FALLS     CLEAR     19   1  45 NW6       30.53R WCI  11
WASKISH        MOCLDY    18   0  45 NE5       30.54S WCI  11
BIG FORK       CLEAR     21  -2  35 N3        30.51R
LONGVILLE      PTCLDY    21   0  39 CALM      30.51R
GRAND RAPIDS   PTCLDY    22   3  44 N9        30.51R WCI  12
CRANE LAKE     CLEAR     19  -2  38 CALM      30.53S
ORR            CLEAR     19  -8  30 CALM      30.49R
COOK           CLEAR     19  -4  35 CALM      30.51R
WALKER         FAIR      21   1  41 N6        30.51R WCI  13
$$
MNZ012-019>021-037-220200-
   Northeast Minnesota

CITY           SKY/WX    TMP DP  RH WIND       PRES   REMARKS
DULUTH         PTCLDY    24   2  38 N7        30.46R WCI  16
ELY            CLEAR     19  -6  32 NW5       30.48R WCI  13
HIBBING        PTCLDY    21  -1  38 N9        30.48R WCI  11
EVELETH        CLEAR     22 -10  23 N7        30.49R WCI  14
DULUTH HARBOR  CLEAR     28   3  34 N12G17    30.52R WCI  18
TWO HARBORS    CLEAR     27   3  36 CALM      30.47R
SILVER BAY     CLEAR     25  -2  30 CALM      30.46R
GRAND MARAIS     N/A     24  -1  33 VRB5      30.50R WCI  18
G MARAIS ARPRT CLEAR     16  -8  35 NW6       30.41R WCI   7
$$
MNZ029>031-032-039>041-046>048-054>057-064-220200-
   West Central Minnesota

CITY           SKY/WX    TMP DP  RH WIND       PRES   REMARKS
FERGUS FALLS   PTCLDY    23   9  54 N5        30.56R WCI  17
WHEATON        PTCLDY    25  14  63 N12       30.54S WCI  14
MORRIS         CLEAR     27  12  54 N10       30.49R WCI  17
ALEXANDRIA     PTCLDY    27  11  51 NE10      30.48R WCI  17
ELBOW LAKE     FAIR      24  12  58 N6        30.51R WCI  17
WADENA         PTCLDY    23   3  42 NE7       30.49R WCI  15
GLENWOOD       PTCLDY    27  12  54 N6        30.48R WCI  20
APPLETON       CLEAR     28  14  54 N8        30.50R WCI  20
BENSON         CLEAR     27  10  50 N8        30.50S WCI  18
ORTONVILLE     CLEAR     27  16  63 N9        30.50R WCI  17
MADISON        CLEAR     30  18  59 N9        30.49R WCI  22
WILLMAR        FAIR      30  16  55 NE8       30.48R WCI  23
$$
MNZ033>034-036-042>043-049>051-058-059-220200-
   Central Minnesota

CITY           SKY/WX    TMP DP  RH WIND       PRES   REMARKS
ST CLOUD       CLEAR     26   8  46 N8        30.48R WCI  18
SAUK CENTRE    FAIR      26   8  45 N6        30.48R WCI  20
PAYNESVILLE      N/A     28  11  48 NE7       30.48R WCI  21
AITKIN         CLEAR     25  -2  30 N6        30.48R WCI  18
PINE RIVER     CLEAR     23   3  42 N7        30.52R WCI  15
BRAINERD       CLEAR     23   6  48 N7        30.49R WCI  15
STAPLES        PTCLDY    23   0  36 NE5       30.50R WCI  17
LONG PRAIRIE   FAIR      27   3  36 NW9       30.49R WCI  17
LITTLE FALLS   PTCLDY    27   1  33 CALM      30.50R
LITCHFIELD     PTCLDY    30  12  47 NE10      30.48R WCI  21
BUFFALO        PTCLDY    28   6  39 N8        30.49R WCI  20
MAPLE LAKE     PTCLDY    29  11  47 N6        30.49R WCI  23
HUTCHINSON     CLEAR     31  13  48 NE10      30.48R WCI  22
$$
MNZ037-044-045-052-053-220200-
   East Central Minnesota

CITY           SKY/WX    TMP DP  RH WIND       PRES   REMARKS
PRINCETON      CLEAR     27   9  46 N6        30.48S WCI  20
MORA           CLEAR     27   3  36 N3        30.50R
CAMBRIDGE      CLEAR     30  10  43 N5        30.47R WCI  25
RUSH CITY      PTCLDY    27   5  39 N7        30.48R WCI  20
MOOSE LAKE     PTCLDY    27   3  36 N6        30.48R WCI  20
HINCKLEY       FAIR      28   3  34 N9        30.48R WCI  20
CLOQUET        PTCLDY    25  -4  28 N6        30.48R WCI  18
MCGREGOR       PTCLDY    27   3  36 N7        30.49R WCI  19
$$
MNZ071>073-080-081-089-090-097-098-220200-
   Southwest Minnesota

CITY           SKY/WX    TMP DP  RH WIND       PRES   REMARKS
MONTEVIDEO     CLEAR     28  16  59 NE7       30.50R WCI  21
GRANITE FALLS  CLEAR     32  17  53 N8        30.49R WCI  25
CANBY          CLEAR     28  19  66 CALM      30.50R
MARSHALL       PTCLDY    29  20  69 N10       30.48R WCI  20
REDWOOD FALLS  CLEAR     32  14  47 N5        30.46R WCI  27
OLIVIA         CLEAR     30  14  51 NE7       30.46R WCI  23
PIPESTONE      CLEAR     28  14  54 NE10G16   30.43R WCI  19
WINDOM         CLEAR     30  19  64 N10       30.44R WCI  21
WORTHINGTON    CLEAR     30  22  72 N10       30.44R WCI  21
JACKSON        CLEAR     32  23  69 N6        30.44R WCI  26
TRACY          CLEAR     30  21  69 NW8       30.46R WCI  23
SLAYTON        CLEAR     28  19  69 N9        30.45R WCI  19
$$
MNZ065>067-074>077-082>085-091>093-220200-
   South Central Minnesota

CITY           SKY/WX    TMP DP  RH WIND       PRES   REMARKS
MANKATO        PTCLDY    31  14  49 N13       30.45R WCI  21
NEW ULM        CLEAR     30  12  47 N7        30.45R WCI  23
ST JAMES       CLEAR     32  19  59 N8        30.46R WCI  25
FAIRMONT       CLEAR     32  20  61 N8        30.44R WCI  25
GLENCOE        PTCLDY    30  15  51 N6        30.47R WCI  24
FARIBAULT      PTCLDY    30  10  43 N7        30.44R WCI  23
OWATONNA       CLEAR     30   9  40 N8        30.43R WCI  23
WASECA         PTCLDY    32  21  64 N8        30.44R WCI  25
ALBERT LEA     CLEAR     30  16  55 N8        30.40R WCI  23
$$
MNZ078>079-086>088-094>096-220200-
   Southeast Minnesota

CITY           SKY/WX    TMP DP  RH WIND       PRES   REMARKS
ROCHESTER      PTCLDY    30  13  49 N12       30.40R WCI  20
RED WING       PTCLDY    32   5  32 N6        30.45R WCI  26
STANTON        PTCLDY    31  15  52 N7        30.43R WCI  24
DODGE CENTER   PTCLDY    28  16  59 N10       30.41R WCI  19
WINONA         CLEAR     34  10  37 N10       30.43R WCI  26
AUSTIN         PTCLDY    30  16  55 N8        30.40R WCI  23
PRESTON        CLEAR     31  12  46 N12       30.39R WCI  21
$$
ABBREVIATIONS USED IN REMARKS
   TC - TEMPERATURES IN CELSIUS
  WCI - WIND CHILL INDEX
   HX - HEAT INDEX
  VSB - VISIBILITY
$$




USA.gov is the U.S. government's official web portal to all federal, state and local government web resources and services.